{"data":{"norad_id":58167,"epoch":"2026-09-20T14:02:51.933120Z","epoch_age_seconds":133004,"freshness":"FRESH","line1":"1 58167U 23166T   26263.58532330  .00000275  00000+0  20606-4 0  9994","line2":"2 58167  53.1592  32.5749 0000802  70.8423 289.2665 15.31712033162898","mean_motion":15.31712033,"eccentricity":8.02e-5,"inclination_deg":53.1592,"raan_deg":32.5749,"arg_perigee_deg":70.8423,"mean_anomaly_deg":289.2665,"bstar":2.0606e-5,"rev_number":16289,"period_min":94.012449401447,"perigee_km":470.15484865534,"apogee_km":471.2534027719,"semimajor_km":6848.8411257136,"source":"CELESTRAK","updated_at":"2026-09-21T09:00:33.824458Z"}}